Погода в Карчореме

Индия     15°15′25″N   74°06′39″E
темп.,
°C
ветер,
м/с
пор.,
м/с
влажн.,
%
обл.,
%
осадки,
мм/ч
давл.,
гПа
погр.,
м
8 мая, сб
сб823:30+27в1276100 0.7 1009150
02:30+27св117467 0.0 100879
05:30+27ююв007425 0.0 100830
08:30+28ю117188 0.0 1010135
11:30+35зсз33497 0.0 10091190
14:30+34з435040 0.1 1006954
17:30+32зюз346188 0.1 1005699
20:30+29сз247524 0.0 1007247
9 мая, вс
вс923:30+29сз12776 0.0 1007118
02:30+28ссв017960 0.0 100683
05:30+27вюв118185 0.0 100744
08:30+32зсз126143 0.0 1009718
11:30+35з43498 0.0 10081496
14:30+34з655310 0.0 1006866
17:30+32з44595 0.1 10061035
20:30+29сз257493 0.0 1007402
10 мая, пн
пн1023:30+29сз127668 0.0 1007141
02:30+28зсз137688 0.0 1005223
05:30+28с117833 0.0 1007106
08:30+31сз236415 0.1 1009966
11:30+34з545469 0.1 10081462
14:30+34з6455100 0.0 10061251
17:30+31зсз556467 0.2 10051032
20:30+29сз3676100 0.0 1007603
11 мая, вт
вт1123:30+29ссз1377100 0.1 1008226
02:30+28с1281100 0.0 100792
05:30+27ссв1284100 0.0 100792
08:30+30ссз246732 0.0 1009916
11:30+34зсз5450100 0.0 10081484
14:30+34зсз6554100 0.0 10061075
17:30+31зсз5663100 0.0 10061058
20:30+29сз357384 0.0 1008487
12 мая, ср
ср1223:30+28ссз247769 0.0 1008235
02:30+27с248091 0.0 1006195
05:30+27с1381100 0.0 1007173
08:30+30ссз356396 0.0 10081061
11:30+34зсз554792 0.0 10081486
14:30+34зсз6550100 0.0 10051092
17:30+31зсз565776 0.0 1004980
20:30+28сз357290 0.0 1005317